SXS8YQ LTAC-EDDF

Flight info

Callsign SXS8YQ
Flight time N/A
Altitude 38000
Route DEREL UL602 MAKOL DCT OMISU/N0459F400 DCT ARSIN DCT SUBEN DCT AKINI T161 DEBHI
Aircraft B738/M-SDE2E3FGHIRWXY/LB1

Departure

Time 2026-04-30 20:17
Airport Esenboğa International Airport (LTAC)

Arrival

Time N/A
Airport Frankfurt Main Airport (EDDF)
Time Latitude Longitude Altitude Speed Heading
2026-04-30 19:14 40.12245 33.00225 3121 ft 0 kts 261°
2026-04-30 20:02 40.12246 33.00231 3121 ft 4 kts 262°
2026-04-30 20:03 40.12236 33.00295 3121 ft 4 kts 326°
2026-04-30 20:03 40.12226 33.00302 3121 ft 1 kts 350°
2026-04-30 20:07 40.12228 33.00301 3121 ft 1 kts 350°
2026-04-30 20:07 40.12314 33.00282 3121 ft 9 kts 350°
2026-04-30 20:08 40.12372 33.00269 3121 ft 8 kts 350°
2026-04-30 20:08 40.12428 33.00256 3121 ft 8 kts 350°
2026-04-30 20:08 40.12481 33.00244 3121 ft 8 kts 350°
2026-04-30 20:08 40.12533 33.00233 3121 ft 7 kts 350°
2026-04-30 20:09 40.12581 33.00213 3121 ft 7 kts 317°
2026-04-30 20:09 40.12592 33.00152 3121 ft 7 kts 271°
2026-04-30 20:09 40.12593 33.00028 3121 ft 7 kts 270°
2026-04-30 20:10 40.12594 32.99908 3121 ft 6 kts 271°
2026-04-30 20:10 40.12595 32.99850 3121 ft 6 kts 271°
2026-04-30 20:10 40.12595 32.99793 3122 ft 6 kts 270°
2026-04-30 20:11 40.12508 32.99675 3121 ft 14 kts 216°
2026-04-30 20:11 40.12413 32.99585 3119 ft 18 kts 216°
2026-04-30 20:11 40.12313 32.99489 3118 ft 18 kts 216°
2026-04-30 20:12 40.12123 32.99308 3116 ft 16 kts 216°
2026-04-30 20:12 40.12033 32.99222 3115 ft 16 kts 216°
2026-04-30 20:12 40.11949 32.99141 3114 ft 15 kts 216°
2026-04-30 20:13 40.11865 32.99060 3113 ft 14 kts 216°
2026-04-30 20:13 40.11786 32.98985 3112 ft 13 kts 216°
2026-04-30 20:13 40.11727 32.98929 3112 ft 8 kts 216°
2026-04-30 20:13 40.11687 32.98885 3112 ft 8 kts 236°
2026-04-30 20:14 40.11695 32.98822 3111 ft 7 kts 302°
2026-04-30 20:14 40.11724 32.98769 3111 ft 7 kts 306°
2026-04-30 20:14 40.11753 32.98718 3112 ft 7 kts 306°
2026-04-30 20:14 40.11781 32.98667 3112 ft 7 kts 306°
2026-04-30 20:15 40.11809 32.98617 3112 ft 7 kts 306°
2026-04-30 20:15 40.11837 32.98568 3112 ft 7 kts 306°
2026-04-30 20:15 40.11864 32.98520 3112 ft 7 kts 306°
2026-04-30 20:15 40.11903 32.98497 3112 ft 6 kts
2026-04-30 20:16 40.11948 32.98528 3112 ft 12 kts 36°
2026-04-30 20:16 40.12168 32.98738 3115 ft 74 kts 36°
2026-04-30 20:16 40.12765 32.99309 3121 ft 136 kts 36°
2026-04-30 20:16 40.13661 33.00173 3287 ft 173 kts 37°
2026-04-30 20:17 40.14579 33.01111 4145 ft 167 kts 39°
2026-04-30 20:17 40.15483 33.02078 4851 ft 169 kts 40°
2026-04-30 20:17 40.16401 33.03064 5523 ft 173 kts 39°
2026-04-30 20:17 40.17335 33.04066 6229 ft 174 kts 40°
2026-04-30 20:18 40.18314 33.05122 6668 ft 195 kts 40°
2026-04-30 20:18 40.19476 33.06249 6855 ft 221 kts 26°
2026-04-30 20:18 40.21045 33.06717 7042 ft 244 kts
2026-04-30 20:18 40.22812 33.06552 7261 ft 267 kts 351°
2026-04-30 20:19 40.24569 33.05622 7669 ft 282 kts 318°
2026-04-30 20:19 40.25422 33.04340 8174 ft 282 kts 304°
2026-04-30 20:19 40.26898 33.01463 9258 ft 287 kts 303°
2026-04-30 20:19 40.28036 32.99342 10019 ft 291 kts 304°
2026-04-30 20:20 40.29260 32.97166 10555 ft 303 kts 306°
2026-04-30 20:20 40.30568 32.94935 11134 ft 313 kts 307°
2026-04-30 20:20 40.31933 32.92661 11690 ft 323 kts 307°
2026-04-30 20:20 40.33351 32.90319 12253 ft 332 kts 307°
2026-04-30 20:21 40.34811 32.87913 12826 ft 341 kts 307°
2026-04-30 20:21 40.36239 32.85370 13386 ft 350 kts 303°
2026-04-30 20:21 40.37646 32.82721 13949 ft 359 kts 303°
2026-04-30 20:21 40.39088 32.80003 14505 ft 367 kts 303°
2026-04-30 20:22 40.40568 32.77225 15115 ft 375 kts 303°
2026-04-30 20:22 40.42071 32.74419 15917 ft 376 kts 303°
2026-04-30 20:22 40.43584 32.71602 16642 ft 380 kts 303°
2026-04-30 20:22 40.45115 32.68752 17313 ft 384 kts 303°
2026-04-30 20:23 40.46659 32.65870 17973 ft 387 kts 303°
2026-04-30 20:23 40.48197 32.62998 18614 ft 390 kts 303°
2026-04-30 20:23 40.49784 32.60031 19253 ft 394 kts 303°
2026-04-30 20:23 40.51344 32.57110 19839 ft 397 kts 303°
2026-04-30 20:24 40.52934 32.54131 20425 ft 400 kts 303°
2026-04-30 20:24 40.54539 32.51121 20975 ft 404 kts 303°
2026-04-30 20:24 40.56154 32.48091 21542 ft 406 kts 303°
2026-04-30 20:24 40.57784 32.45027 22062 ft 409 kts 303°
2026-04-30 20:25 40.61075 32.38831 23092 ft 415 kts 303°
2026-04-30 20:25 40.62734 32.35702 23587 ft 418 kts 303°
2026-04-30 20:26 40.66082 32.29381 24545 ft 424 kts 303°
2026-04-30 20:26 40.69468 32.22977 25432 ft 429 kts 303°
2026-04-30 20:26 40.71176 32.19740 25867 ft 431 kts 303°
2026-04-30 20:27 40.74529 32.13148 26660 ft 435 kts 301°
2026-04-30 20:27 40.77848 32.06422 27381 ft 440 kts 301°
2026-04-30 20:28 40.81178 31.99660 28112 ft 444 kts 301°
2026-04-30 20:28 40.84581 31.92766 28806 ft 447 kts 301°
2026-04-30 20:29 40.87971 31.85899 29416 ft 451 kts 301°
2026-04-30 20:30 40.93072 31.75542 30775 ft 444 kts 301°
2026-04-30 20:30 40.98108 31.65278 31904 ft 442 kts 301°
2026-04-30 20:31 41.03108 31.55057 33031 ft 439 kts 301°
2026-04-30 20:32 41.08056 31.44908 34044 ft 436 kts 300°
2026-04-30 20:32 41.11320 31.38187 34705 ft 435 kts 300°
2026-04-30 20:33 41.12955 31.34817 35013 ft 434 kts 300°
2026-04-30 20:33 41.16220 31.28084 35531 ft 434 kts 300°
2026-04-30 20:33 41.17856 31.24702 35793 ft 434 kts 300°
2026-04-30 20:34 41.21106 31.17971 36349 ft 433 kts 300°
2026-04-30 20:34 41.24348 31.11238 36960 ft 429 kts 300°
2026-04-30 20:35 41.25945 31.07924 37466 ft 422 kts 300°
2026-04-30 20:35 41.27521 31.04648 37734 ft 421 kts 300°
2026-04-30 20:35 41.30686 30.98043 37990 ft 425 kts 300°
2026-04-30 20:36 41.33876 30.91378 38091 ft 429 kts 300°
2026-04-30 20:37 41.38126 30.82481 38081 ft 424 kts 300°
2026-04-30 20:37 41.41274 30.75874 38095 ft 421 kts 300°
2026-04-30 20:38 41.44915 30.68242 38105 ft 419 kts 300°
2026-04-30 20:38 41.47558 30.62751 38098 ft 419 kts 300°
2026-04-30 20:39 41.52264 30.52939 38118 ft 419 kts 300°
2026-04-30 20:40 41.56965 30.43088 38108 ft 420 kts 300°
2026-04-30 20:40 41.60106 30.36488 38105 ft 422 kts 300°
2026-04-30 20:41 41.64800 30.26590 38101 ft 423 kts 300°
2026-04-30 20:41 41.67958 30.19932 38102 ft 424 kts 300°
2026-04-30 20:42 41.71111 30.13251 38110 ft 424 kts 300°
2026-04-30 20:43 41.75841 30.03217 38108 ft 425 kts 300°
2026-04-30 20:43 41.78991 29.96518 38108 ft 424 kts 300°
2026-04-30 20:44 41.83697 29.86473 38109 ft 424 kts 300°
2026-04-30 20:45 41.89939 29.73089 38111 ft 422 kts 299°
2026-04-30 20:45 41.93027 29.66445 38110 ft 422 kts 299°
2026-04-30 20:46 41.99221 29.53091 38131 ft 420 kts 299°
2026-04-30 20:47 42.03842 29.43082 38135 ft 419 kts 299°
2026-04-30 20:48 42.08453 29.33064 38147 ft 420 kts 299°
2026-04-30 20:48 42.11533 29.26350 38147 ft 422 kts 299°
2026-04-30 20:49 42.14604 29.19644 38135 ft 423 kts 299°
2026-04-30 20:50 42.19470 29.09664 38140 ft 426 kts 303°
2026-04-30 20:50 42.23003 29.03237 38148 ft 427 kts 304°
2026-04-30 20:51 42.26546 28.96795 38147 ft 427 kts 304°
2026-04-30 20:51 42.31825 28.87097 38159 ft 427 kts 303°
2026-04-30 20:52 42.35329 28.80617 38157 ft 427 kts 303°
2026-04-30 20:53 42.40570 28.70888 38173 ft 426 kts 303°
2026-04-30 20:53 42.44054 28.64399 38181 ft 426 kts 303°
2026-04-30 20:54 42.49284 28.54641 38192 ft 427 kts 303°
2026-04-30 20:55 42.54511 28.44857 38206 ft 427 kts 303°
2026-04-30 20:55 42.57968 28.38370 38223 ft 427 kts 303°
2026-04-30 20:56 42.63177 28.28558 38229 ft 428 kts 303°
2026-04-30 20:57 42.68400 28.18686 38230 ft 428 kts 303°
2026-04-30 20:57 42.71878 28.12094 38244 ft 429 kts 303°
2026-04-30 20:58 42.77107 28.02165 38244 ft 430 kts 303°
2026-04-30 20:58 42.80588 27.95542 38225 ft 430 kts 303°
2026-04-30 20:59 42.85779 27.85623 38247 ft 430 kts 303°
2026-04-30 21:00 42.92730 27.72306 38227 ft 430 kts 303°
2026-04-30 21:01 42.97918 27.62315 38243 ft 430 kts 303°
2026-04-30 21:02 43.03102 27.52311 38246 ft 430 kts 303°
2026-04-30 21:02 43.06553 27.45621 38248 ft 431 kts 303°
2026-04-30 21:03 43.10005 27.38912 38245 ft 432 kts 303°
2026-04-30 21:03 43.13463 27.32186 38247 ft 432 kts 303°
2026-04-30 21:04 43.16917 27.25449 38249 ft 432 kts 303°
2026-04-30 21:04 43.22097 27.15323 38258 ft 432 kts 303°
2026-04-30 21:05 43.25539 27.08572 38269 ft 432 kts 303°
2026-04-30 21:05 43.28953 27.01866 38268 ft 431 kts 303°
2026-04-30 21:06 43.32378 26.95117 38281 ft 431 kts 303°
2026-04-30 21:06 43.35808 26.88354 38296 ft 432 kts 303°
2026-04-30 21:07 43.39239 26.81557 38302 ft 433 kts 303°
2026-04-30 21:07 43.42679 26.74727 38312 ft 435 kts 303°
2026-04-30 21:08 43.46130 26.67862 38314 ft 437 kts 303°
2026-04-30 21:08 43.49596 26.60965 38309 ft 438 kts 303°
2026-04-30 21:09 43.53056 26.54053 38318 ft 438 kts 303°
2026-04-30 21:09 43.56498 26.47160 38323 ft 439 kts 303°
2026-04-30 21:10 43.59962 26.40212 38324 ft 439 kts 303°
2026-04-30 21:10 43.63420 26.33253 38319 ft 439 kts 303°
2026-04-30 21:11 43.66865 26.26305 38321 ft 438 kts 303°
2026-04-30 21:11 43.70311 26.19340 38322 ft 439 kts 303°
2026-04-30 21:12 43.73747 26.12376 38325 ft 438 kts 303°
2026-04-30 21:12 43.77183 26.05396 38324 ft 438 kts 303°
2026-04-30 21:13 43.80601 25.98431 38328 ft 437 kts 303°
2026-04-30 21:13 43.83988 25.91519 38332 ft 437 kts 303°
2026-04-30 21:14 43.87413 25.84513 38330 ft 436 kts 302°
2026-04-30 21:14 43.90808 25.77553 38331 ft 435 kts 302°
2026-04-30 21:15 43.94173 25.70636 38332 ft 435 kts 302°
2026-04-30 21:15 43.97552 25.63672 38333 ft 435 kts 302°
2026-04-30 21:16 44.00930 25.56699 38332 ft 435 kts 302°
2026-04-30 21:16 44.04310 25.49703 38331 ft 436 kts 302°
2026-04-30 21:17 44.07694 25.42680 38333 ft 437 kts 302°
2026-04-30 21:17 44.11079 25.35645 38331 ft 438 kts 302°
2026-04-30 21:18 44.14441 25.28640 38334 ft 438 kts 302°
2026-04-30 21:18 44.17823 25.21568 38331 ft 438 kts 302°
2026-04-30 21:19 44.21207 25.14476 38333 ft 439 kts 302°
2026-04-30 21:19 44.24588 25.07371 38342 ft 440 kts 302°
2026-04-30 21:20 44.27946 25.00302 38337 ft 440 kts 302°
2026-04-30 21:20 44.31325 24.93166 38342 ft 440 kts 302°
2026-04-30 21:21 44.34706 24.86012 38345 ft 441 kts 302°
2026-04-30 21:22 44.39762 24.75287 38353 ft 441 kts 302°
2026-04-30 21:23 44.45912 24.62179 38359 ft 439 kts 302°
2026-04-30 21:23 44.51466 24.50282 38359 ft 439 kts 302°
2026-04-30 21:24 44.54804 24.43116 38362 ft 438 kts 302°
2026-04-30 21:24 44.57567 24.37161 38356 ft 438 kts 302°
2026-04-30 21:25 44.62562 24.26383 38464 ft 441 kts 302°
2026-04-30 21:25 44.64229 24.22777 38661 ft 441 kts 302°
2026-04-30 21:26 44.67562 24.15543 39095 ft 441 kts 302°
2026-04-30 21:26 44.69229 24.11921 39253 ft 442 kts 302°
2026-04-30 21:27 44.72545 24.04709 39618 ft 442 kts 302°
2026-04-30 21:27 44.74234 24.01027 39727 ft 443 kts 302°
2026-04-30 21:27 44.75886 23.97418 39884 ft 444 kts 302°
2026-04-30 21:28 44.79220 23.90125 40264 ft 443 kts 302°
2026-04-30 21:28 44.80889 23.86466 40350 ft 444 kts 302°
2026-04-30 21:29 44.85918 23.75417 40360 ft 446 kts 302°
2026-04-30 21:30 44.94237 23.57042 40349 ft 444 kts 302°
2026-04-30 21:31 45.02515 23.38639 40348 ft 443 kts 302°
2026-04-30 21:32 45.07466 23.27575 40343 ft 443 kts 302°
2026-04-30 21:32 45.10763 23.20184 40333 ft 444 kts 302°
2026-04-30 21:33 45.15687 23.09107 40331 ft 444 kts 302°
2026-04-30 21:34 45.18977 23.01683 40345 ft 445 kts 302°
2026-04-30 21:34 45.23915 22.90505 40343 ft 446 kts 302°
2026-04-30 21:35 45.27204 22.83034 40322 ft 447 kts 302°
2026-04-30 21:35 45.30473 22.75588 40328 ft 447 kts 302°
2026-04-30 21:36 45.33761 22.68082 40327 ft 448 kts 302°
2026-04-30 21:37 45.40337 22.53005 40331 ft 448 kts 302°
2026-04-30 21:37 45.43617 22.45456 40332 ft 448 kts 302°
2026-04-30 21:38 45.46891 22.37899 40330 ft 448 kts 302°
2026-04-30 21:38 45.50162 22.30328 40322 ft 448 kts 302°
2026-04-30 21:39 45.53425 22.22757 40327 ft 448 kts 302°
2026-04-30 21:39 45.56663 22.15223 40325 ft 448 kts 302°
2026-04-30 21:40 45.59913 22.07640 40317 ft 447 kts 302°
2026-04-30 21:40 45.63153 22.00060 40321 ft 447 kts 301°
2026-04-30 21:41 45.66389 21.92469 40319 ft 447 kts 301°
2026-04-30 21:41 45.69622 21.84865 40326 ft 447 kts 301°
2026-04-30 21:42 45.72846 21.77260 40325 ft 447 kts 301°
2026-04-30 21:42 45.76044 21.69696 40318 ft 447 kts 301°
2026-04-30 21:43 45.79261 21.62072 40323 ft 447 kts 301°
2026-04-30 21:43 45.82414 21.54386 40323 ft 447 kts 300°
2026-04-30 21:44 45.85475 21.46619 40322 ft 447 kts 300°
2026-04-30 21:44 45.88528 21.38839 40319 ft 447 kts 300°
2026-04-30 21:45 45.91571 21.31098 40322 ft 448 kts 300°
2026-04-30 21:45 45.94629 21.23319 40319 ft 448 kts 300°
2026-04-30 21:46 45.97690 21.15516 40324 ft 448 kts 300°
2026-04-30 21:46 46.00746 21.07704 40321 ft 448 kts 300°
2026-04-30 21:47 46.03793 20.99891 40319 ft 448 kts 300°
2026-04-30 21:47 46.06841 20.92055 40329 ft 448 kts 300°
2026-04-30 21:48 46.09879 20.84219 40322 ft 448 kts 300°
2026-04-30 21:48 46.12916 20.76364 40326 ft 449 kts 300°
2026-04-30 21:49 46.15929 20.68552 40324 ft 449 kts 300°
2026-04-30 21:49 46.18981 20.60613 40339 ft 449 kts 300°
2026-04-30 21:50 46.21986 20.52772 40334 ft 449 kts 300°
2026-04-30 21:50 46.25027 20.44817 40341 ft 450 kts 299°
2026-04-30 21:51 46.28023 20.36956 40344 ft 450 kts 299°
2026-04-30 21:51 46.31043 20.29009 40343 ft 450 kts 299°
2026-04-30 21:52 46.34052 20.21066 40352 ft 450 kts 299°
2026-04-30 21:52 46.37056 20.13114 40355 ft 450 kts 299°
2026-04-30 21:53 46.40054 20.05157 40360 ft 450 kts 299°
2026-04-30 21:53 46.42952 19.97441 40359 ft 449 kts 299°
2026-04-30 21:54 46.45898 19.89572 40356 ft 440 kts 299°
2026-04-30 21:54 46.48809 19.81778 40365 ft 438 kts 299°
2026-04-30 21:55 46.51698 19.74019 40366 ft 435 kts 299°
2026-04-30 21:55 46.54572 19.66279 40377 ft 437 kts 299°
2026-04-30 21:56 46.57485 19.58412 40378 ft 447 kts 299°
2026-04-30 21:56 46.60432 19.50430 40378 ft 454 kts 299°
2026-04-30 21:57 46.63411 19.42332 40357 ft 452 kts 299°
2026-04-30 21:57 46.66356 19.34304 40361 ft 447 kts 299°
2026-04-30 21:58 46.69269 19.26339 40368 ft 444 kts 299°
2026-04-30 21:58 46.72162 19.18409 40370 ft 443 kts 299°
2026-04-30 21:59 46.75045 19.10482 40379 ft 443 kts 299°
2026-04-30 22:00 46.79375 18.98531 40383 ft 446 kts 299°
2026-04-30 22:00 46.83713 18.86503 40388 ft 450 kts 299°
2026-04-30 22:01 46.86632 18.78381 40379 ft 453 kts 299°
2026-04-30 22:01 46.89564 18.70194 40374 ft 455 kts 299°
2026-04-30 22:02 46.92499 18.61974 40370 ft 457 kts 298°
2026-04-30 22:02 46.95439 18.53714 40375 ft 457 kts 299°
2026-04-30 22:03 46.98348 18.45520 40374 ft 456 kts 298°
2026-04-30 22:03 47.01265 18.37271 40374 ft 456 kts 298°
2026-04-30 22:04 47.04170 18.29035 40374 ft 454 kts 298°
2026-04-30 22:05 47.08508 18.16687 40376 ft 452 kts 298°
2026-04-30 22:05 47.11380 18.08480 40376 ft 451 kts 298°
2026-04-30 22:06 47.14222 18.00334 40380 ft 450 kts 298°
2026-04-30 22:06 47.18491 17.88048 40379 ft 449 kts 298°
2026-04-30 22:07 47.21328 17.79852 40377 ft 450 kts 298°
2026-04-30 22:07 47.24159 17.71648 40381 ft 450 kts 298°
2026-04-30 22:08 47.26992 17.63413 40379 ft 451 kts 298°
2026-04-30 22:08 47.29804 17.55212 40379 ft 451 kts 298°
2026-04-30 22:09 47.32630 17.46944 40378 ft 452 kts 298°
2026-04-30 22:09 47.35458 17.38644 40378 ft 453 kts 298°
2026-04-30 22:10 47.38281 17.30332 40379 ft 453 kts 298°
2026-04-30 22:10 47.41102 17.21997 40380 ft 454 kts 298°
2026-04-30 22:11 47.45312 17.09513 40377 ft 454 kts 298°
2026-04-30 22:12 47.48124 17.01138 40376 ft 454 kts 298°
2026-04-30 22:12 47.50928 16.92762 40375 ft 454 kts 298°
2026-04-30 22:13 47.53726 16.84376 40385 ft 454 kts 298°
2026-04-30 22:13 47.56046 16.77404 40385 ft 454 kts 298°
2026-04-30 22:14 47.59017 16.67437 40392 ft 455 kts 294°
2026-04-30 22:14 47.60964 16.60123 40385 ft 455 kts 293°
2026-04-30 22:15 47.63274 16.51393 40391 ft 455 kts 294°
2026-04-30 22:15 47.65591 16.42737 40396 ft 454 kts 294°
2026-04-30 22:16 47.67932 16.34039 40394 ft 454 kts 294°
2026-04-30 22:17 47.72612 16.16584 40396 ft 454 kts 294°
2026-04-30 22:17 47.76099 16.03486 40400 ft 454 kts 294°
2026-04-30 22:18 47.79573 15.90358 40407 ft 455 kts 294°
2026-04-30 22:19 47.83026 15.77242 40403 ft 456 kts 293°
2026-04-30 22:20 47.86478 15.64050 40404 ft 456 kts 293°
2026-04-30 22:20 47.89916 15.50840 40402 ft 456 kts 293°
2026-04-30 22:21 47.92203 15.42006 40407 ft 456 kts 293°
2026-04-30 22:21 47.94465 15.33241 40404 ft 456 kts 293°
2026-04-30 22:22 47.96733 15.24414 40409 ft 455 kts 293°
2026-04-30 22:22 47.98994 15.15581 40415 ft 455 kts 293°
2026-04-30 22:23 48.01247 15.06746 40411 ft 455 kts 293°
2026-04-30 22:23 48.03492 14.97908 40417 ft 455 kts 293°
2026-04-30 22:24 48.05728 14.89071 40414 ft 455 kts 293°
2026-04-30 22:24 48.07960 14.80218 40415 ft 455 kts 293°
2026-04-30 22:25 48.10169 14.71417 40426 ft 455 kts 293°
2026-04-30 22:25 48.12390 14.62539 40425 ft 455 kts 293°
2026-04-30 22:26 48.15707 14.49210 40423 ft 455 kts 292°
2026-04-30 22:27 48.17911 14.40307 40422 ft 456 kts 292°
2026-04-30 22:27 48.21205 14.26941 40428 ft 456 kts 292°
2026-04-30 22:28 48.24530 14.13637 40428 ft 455 kts 296°
2026-04-30 22:29 48.30118 13.96627 40429 ft 454 kts 299°
2026-04-30 22:31 48.39838 13.66711 40424 ft 455 kts 298°
2026-04-30 22:32 48.46680 13.45263 40414 ft 454 kts 298°
2026-04-30 22:33 48.53471 13.23805 40413 ft 453 kts 298°
2026-04-30 22:35 48.60190 13.02388 40404 ft 452 kts 298°
2026-04-30 22:36 48.66870 12.80916 40387 ft 451 kts 297°
2026-04-30 22:37 48.72152 12.63802 40395 ft 450 kts 297°
2026-04-30 22:38 48.77426 12.46597 40396 ft 450 kts 297°
2026-04-30 22:39 48.81365 12.33668 40396 ft 450 kts 297°
2026-04-30 22:40 48.89193 12.07772 40398 ft 451 kts 297°
2026-04-30 22:41 48.95688 11.86074 40395 ft 451 kts 297°
2026-04-30 22:43 49.03449 11.59896 39271 ft 454 kts 297°
2026-04-30 22:43 49.06028 11.51124 38115 ft 453 kts 297°
2026-04-30 22:44 49.08598 11.42377 36895 ft 451 kts 297°
2026-04-30 22:45 49.13710 11.24833 34182 ft 455 kts 298°
2026-04-30 22:45 49.16280 11.15977 32742 ft 457 kts 297°
2026-04-30 22:46 49.18826 11.07162 31720 ft 449 kts 297°
2026-04-30 22:47 49.23715 10.89927 29888 ft 430 kts 295°
2026-04-30 22:47 49.25796 10.81360 29408 ft 439 kts 294°
2026-04-30 22:48 49.27890 10.72534 28909 ft 442 kts 293°
2026-04-30 22:49 49.31227 10.58706 28192 ft 472 kts 293°
2026-04-30 22:49 49.34622 10.44642 27433 ft 466 kts 293°
2026-04-30 22:50 49.39079 10.26071 26415 ft 464 kts 292°
2026-04-30 22:51 49.41365 10.16501 25951 ft 488 kts 292°
2026-04-30 22:51 49.43681 10.06735 25148 ft 482 kts 292°
2026-04-30 22:52 49.44816 10.01936 24590 ft 475 kts 292°
2026-04-30 22:52 49.47048 9.92479 23463 ft 468 kts 292°
2026-04-30 22:53 49.49249 9.83108 22345 ft 463 kts 291°
2026-04-30 22:53 49.51415 9.73847 21233 ft 456 kts 291°
2026-04-30 22:53 49.52484 9.69264 20681 ft 453 kts 291°
2026-04-30 22:54 49.54584 9.60230 19583 ft 441 kts 291°
2026-04-30 22:55 49.57554 9.47356 18033 ft 413 kts 291°
2026-04-30 22:55 49.59439 9.39165 17047 ft 398 kts 291°
2026-04-30 22:56 49.61217 9.31404 16120 ft 367 kts 291°
2026-04-30 22:56 49.63657 9.20722 14826 ft 347 kts 291°
2026-04-30 22:57 49.65244 9.13741 13978 ft 343 kts 290°
2026-04-30 22:57 49.66815 9.06811 13129 ft 339 kts 290°
2026-04-30 22:58 49.68358 8.99972 12293 ft 336 kts 290°
2026-04-30 22:59 49.70648 8.89793 11036 ft 332 kts 290°
2026-04-30 22:59 49.72798 8.80185 10623 ft 303 kts 289°